• Join FlightAware (Why Join?)
  • Login
  • US Flag 
09:15PM EST


 

Airport Tracker/Info


-or-


 

Live Flight TrackerFlight Track Log ✈ FLG4262 ✈ 22-Nov-2013 ✈ KDTW - KBGM

Flight Track Log - Related Links

Times and Time Zones

All times are in EST time to prevent confusion due to time zone crossing. See the FLG4262 flight status page for this flight to view local times or setup timezone preferences in your user account.

Time Position Orientation Groundspeed Altitude Reporting Facility
EST Latitude Longitude Course Direction KTS MPH feet Rate Location/Type
03:57PM 42.2297 -83.3339 33° Northeast 172 198 1,300  Level Cleveland Center
03:58PM 42.2633 -83.3047 33° Northeast 184 212 3,700 2,229 Climbing Cleveland Center
03:59PM 42.3017 -83.2606 40° Northeast 221 254 5,200 1,791 Climbing Cleveland Center
03:59PM 42.3183 -83.2447 35° Northeast 261 300 5,700 2,516 Climbing Cleveland Center
04:00PM 42.3417 -83.1731 66° East 278 320 7,800 2,419 Climbing Cleveland Center
04:00PM 42.3419 -83.1519 89° East 297 342 8,200 1,935 Climbing Cleveland Center
04:01PM 42.3453 -83.0567 87° East 308 354 9,800 1,540 Climbing Cleveland Center
04:02PM 42.3500 -82.9272 87° East 335 386 11,100 1,584 Climbing Cleveland Center
04:03PM 42.3567 -82.7803 86° East 377 434 13,100 1,584 Climbing Cleveland Center
04:04PM 42.3628 -82.6283 87° East 399 459 14,400 1,645 Climbing Cleveland Center
04:05PM 42.3689 -82.4308 88° East 434 499 16,500 1,694 Climbing Cleveland Center
04:06PM 42.3611 -82.2633 94° East 445 512 17,900 1,210 Climbing Cleveland Center
04:07PM 42.3539 -82.0900 93° East 453 521 19,000 968 Climbing Cleveland Center
04:08PM 42.3456 -81.9136 94° East 463 533 19,900 823 Climbing Cleveland Center
04:09PM 42.3375 -81.7303 93° East 479 551 20,700 823 Climbing Cleveland Center
04:10PM 42.3283 -81.5408 94° East 496 571 21,600 823 Climbing Cleveland Center
04:11PM 42.3194 -81.3472 93° East 506 582 22,400 823 Climbing Cleveland Center
04:12PM 42.3075 -81.1178 94° East 517 595 23,300 871 Climbing Cleveland Center
04:13PM 42.2981 -80.9206 94° East 520 598 24,200 823 Climbing Cleveland Center
04:14PM 42.2867 -80.7183 94° East 530 610 25,000 768 Climbing Cleveland Center
04:15PM 42.2769 -80.5206 94° East 526 605 25,800 720 Climbing Cleveland Center
04:16PM 42.2650 -80.3206 95° East 528 608 26,500 677 Climbing Cleveland Center
04:17PM 42.2531 -80.1178 94° East 535 616 27,200 677 Climbing Cleveland Center
04:18PM 42.2400 -79.9119 95° East 534 615 27,900 677 Climbing Cleveland Center
04:19PM 42.2275 -79.7117 95° East 536 617 28,600 532 Climbing Cleveland Center
04:21PM 42.2139 -79.5117 95° East 539 620 29,000 194 Climbing Cleveland Center
04:22PM 42.1972 -79.2653 95° East 552 635 29,000  Level Cleveland Center
04:23PM 42.1892 -79.0542 93° East 563 648 29,000 -384 Level Cleveland Center
04:24PM 42.1928 -78.8528 89° East 566 651 28,200 -581 Descending Cleveland Center
04:25PM 42.1964 -78.6422 89° East 565 650 27,800 -585 Descending Cleveland Center
04:26PM 42.2003 -78.3994 89° East 547 629 27,000 -387 Descending Cleveland Center
04:27PM 42.2019 -78.2039 89° East 532 612 27,000  Level Cleveland Center
04:28PM 42.2050 -78.0042 89° East 534 615 27,000 -432 Level Cleveland Center
04:29PM 42.2061 -77.8036 90° East 540 621 26,100 -1,296 Descending Cleveland Center
04:30PM 42.2078 -77.6194 89° East 507 583 24,300 -2,468 Descending Cleveland Center
04:31PM 42.2097 -77.4072 89° East 481 554 21,000 -2,952 Descending Cleveland Center
04:32PM 42.2119 -77.2381 89° East 463 533 18,200 -2,222 Descending Cleveland Center
04:33PM 42.2128 -77.1011 89° East 458 527 17,000 -2,321 Descending New York Center
04:34PM 42.2122 -76.9528 90° East 433 498 14,100 -2,950 Descending New York Center
04:35PM 42.2133 -76.8128 89° East 393 452 11,100 -2,500 Descending New York Center
04:36PM 42.2083 -76.7003 93° East 354 407 9,100 -1,000 Descending New York Center
04:37PM 42.2103 -76.5800 89° East 333 383 9,100  Level New York Center
04:38PM 42.2075 -76.4650 92° East 321 369 9,100 -500 Level New York Center
04:39PM 42.2089 -76.3475 89° East 316 364 8,100 -1,850 Descending New York Center
04:40PM 42.2383 -76.2494 68° East 298 343 5,400 -2,350 Descending New York Center
04:41PM 42.2756 -76.1656 59° Northeast 272 313 3,400 -1,100 Descending New York Center
04:42PM 42.3058 -76.0894 62° Northeast 247 284 3,200 -250 Descending New York Center
04:43PM 42.2692 -76.0306 130° Southeast 175 201 2,900 -500 Descending New York Center
04:44PM 42.2317 -75.9828 137° Southeast 167 192 2,200 -700 Descending New York Center